{"data":{"norad_id":68116,"epoch":"2026-09-19T14:50:05.477280Z","epoch_age_seconds":132337,"freshness":"FRESH","line1":"1 68116U 26044R   26262.61811895  .00018499  00000+0  57391-3 0  9993","line2":"2 68116  97.2845 221.5970 0001864  89.4150 270.7306 15.33444969 31301","mean_motion":15.33444969,"eccentricity":0.0001864,"inclination_deg":97.2845,"raan_deg":221.597,"arg_perigee_deg":89.415,"mean_anomaly_deg":270.7306,"bstar":0.00057391,"rev_number":3130,"period_min":93.906206555235,"perigee_km":464.26760471061,"apogee_km":466.81892871404,"semimajor_km":6843.6802667123,"source":"CELESTRAK","updated_at":"2026-09-20T09:00:43.788312Z"}}